Terminal Aerodrome Forecast
Issued by NWS Blacksburg, VA

Home | Current Version | Previous Version | Text Only | Print | Product List | Glossary On
Versions: 1 2 3 4 5 6 7 8 9 10 11 12 13 14 15 16 17 18 19 20 21 22 23 24 25 26 27 28 29 30 31 32 33 34 35 36 37 38 39 40 41 42 43 44 45
000
FTUS41 KRNK 232326
TAFDAN
TAF
KDAN 232326Z 2400/2424 21005KT 4SM -TSRA BR BKN025CB
     FM240100 VRB03KT P6SM VCTS SCT040CB BKN100
     FM240600 VRB03KT P6SM BKN120
     FM241600 VRB04KT P6SM VCTS SCT040CB BKN120=

USA.gov is the U.S. government's official web portal to all federal, state and local government web resources and services.